CST,Max TemperatureF,Mean TemperatureF,Min TemperatureF,Max Dew PointF,MeanDew PointF,Min DewpointF,Max Humidity, Mean Humidity, Min Humidity, Max Sea Level PressureIn, Mean Sea Level PressureIn, Min Sea Level PressureIn, Max VisibilityMiles, Mean VisibilityMiles, Min VisibilityMiles, Max Wind SpeedMPH, Mean Wind SpeedMPH, Max Gust SpeedMPH,PrecipitationIn, CloudCover, Events, WindDirDegrees
2011-12-1,45,36,27,32,25,20,96,69,41,30.38,30.26,30.16,10,9,5,15,5,17,0.02,4,,311
2011-12-2,41,32,22,33,28,21,96,76,55,30.48,30.38,30.26,10,9,7,15,6,20,0.00,3,,149
2011-12-3,52,45,38,48,41,33,96,83,70,30.24,30.08,29.80,10,7,3,24,12,33,0.82,7,Rain,179
2011-12-4,53,42,31,50,34,23,92,82,72,30.31,30.06,29.79,10,9,4,20,11,25,0.07,8,Rain,288
2011-12-5,32,30,28,28,25,22,85,77,69,30.37,30.34,30.29,10,9,2,16,9,20,0.01,8,Snow,333
2011-12-6,32,31,29,28,26,25,92,82,72,30.33,30.26,30.17,10,6,1,10,6,13,0.04,8,Snow,30
2011-12-7,31,24,17,27,19,14,92,78,63,30.18,30.13,30.04,10,9,6,18,9,23,0.00,3,,265
2011-12-8,35,30,24,27,24,18,92,78,64,30.26,30.22,30.17,10,8,2,14,4,17,0.02,7,Snow,291
2011-12-9,27,20,13,21,13,4,88,69,50,30.53,30.35,30.23,10,7,2,18,9,22,0.03,4,Snow,298
2011-12-10,29,18,7,20,12,2,88,72,55,30.58,30.49,30.39,10,10,10,17,7,22,0.00,2,,209
2011-12-11,41,34,26,31,25,20,92,78,64,30.40,30.36,30.30,10,9,4,15,8,21,0.00,0,,194
2011-12-12,47,39,31,30,27,25,85,67,49,30.36,30.34,30.31,10,10,10,12,5,15,0.00,7,,174
2011-12-13,44,41,37,39,34,27,100,80,59,30.39,30.30,30.18,10,8,2,10,3,13,0.36,8,Rain,143
2011-12-14,58,49,40,54,46,39,100,93,86,30.14,29.90,29.65,10,6,2,23,10,31,1.01,8,Rain,176
2011-12-15,57,43,29,52,32,22,86,75,64,30.34,29.97,29.66,10,10,9,29,18,40,0.00,7,,282
2011-12-16,35,29,22,23,20,18,81,67,52,30.45,30.39,30.35,10,10,8,16,4,22,0.00,1,,313
2011-12-17,39,31,23,29,26,23,92,78,64,30.35,30.26,30.22,10,9,6,15,4,18,0.00,4,,253
2011-12-18,50,35,20,36,30,20,100,76,52,30.24,30.08,29.88,10,9,6,20,8,25,0.00,1,,207
2011-12-19,49,43,36,37,34,29,79,72,65,30.21,30.04,29.86,10,10,10,15,8,20,0.00,3,,341
2011-12-20,38,37,35,36,32,28,100,88,75,30.18,29.96,29.76,10,8,2,13,8,15,0.02,8,Rain,68
2011-12-21,39,35,30,36,34,30,100,91,82,29.93,29.77,29.68,10,6,1,14,6,18,0.01,6,Rain,248
2011-12-22,35,31,26,32,27,19,100,85,69,30.35,30.15,29.95,10,8,3,15,7,22,0.00,6,,346
2011-12-23,30,24,17,22,19,14,84,74,63,30.41,30.32,30.22,10,10,10,17,7,23,0.00,3,,238
2011-12-24,42,31,19,27,23,16,84,69,53,30.33,30.27,30.21,10,10,10,16,7,25,0.00,0,,232
2011-12-25,46,35,23,28,25,21,84,65,45,30.36,30.25,30.14,10,10,10,23,10,28,0.00,0,,279
2011-12-26,45,32,19,30,25,18,92,73,53,30.34,30.12,29.82,10,10,10,21,9,29,T,3,,196
2011-12-27,39,33,27,32,27,21,89,74,59,30.07,29.82,29.69,10,10,10,24,12,33,0.00,4,,293
2011-12-28,40,31,21,30,24,19,88,71,54,30.09,29.97,29.77,10,10,10,13,5,16,0.00,4,,182
2011-12-29,52,43,33,33,31,29,82,65,48,29.75,29.64,29.58,10,10,10,24,9,31,T,2,,238
2011-12-30,44,40,35,43,37,32,100,90,79,29.89,29.58,29.40,10,6,1,17,8,23,0.25,8,Rain,12
2011-12-31,49,41,32,40,35,30,100,85,70,29.96,29.82,29.52,10,7,2,24,11,30,0.00,5,,150